Other Surface Observations
Issued by NWS

Home | Current Version | Previous Version | Text Only | Print | Product List | Glossary On
Versions: 1 2 3 4 5 6 7 8 9 10 11 12 13 14 15 16 17 18 19 20 21 22 23 24 25 26 27 28 29 30 31 32 33 34 35 36 37 38 39 40 41 42 43 44 45 46 47 48 49 50
199
SXUS52 KTAE 280118
OSOTAE
OSOTAE
North Florida/South Alabama/Southwest Georgia Weather Roundup
National Weather Service Tallahassee Florida
900 PM EDT SAT AUG 27 2016

Note: "fair" indicates few or no clouds below 12,000 feet with no
significant weather and/or obstructions to visibility.

!FLZ017-115-028-034-025-280200
...North Florida...

CITY           SKY/WX    TMP DP  RH WIND       PRES   REMARKS
TALLAHASSEE    CLOUDY    78  76  93 SW3       29.98R
APALACHICOLA   PTCLDY    80  76  87 CALM      29.95S
PERRY          MOCLDY    83  74  72 E5        29.97R HX  90
CROSS CITY     PTCLDY    81  77  89 CALM      29.96R
JACKSONVILLE   MOCLDY    80  77  90 E5        30.00R
$$

!FLZ112-006-005-002-011-280200
...Florida Panhandle...

CITY           SKY/WX    TMP DP  RH WIND       PRES   REMARKS
MARIANNA       CLOUDY    83  75  77 CALM      29.98R HX  90
BONIFAY        NOT AVBL
PANAMA CITY NW FAIR      80  77  90 CALM      29.97R
TYNDALL AFB    PTCLDY    81  76  85 CALM      29.97R
TYND DRONE APT FAIR      80  77  91 CALM      29.97R
DE FUNIAK SPR  FAIR      82  73  73 CALM      29.99R
EGLIN AFB      MOCLDY    83  76  81 CALM      29.97R HX  91
DESTIN         CLOUDY    84  78  82 CALM      29.97R HX  95
HURLBURT       MOCLDY    80  76  86 CALM      29.96R
CRESTVIEW      CLOUDY    80  75  84 CALM      29.99R
PENSACOLA      CLOUDY    80  74  81 E3        29.97R
$$

!ALZ063-066-280200
...South Alabama...

CITY           SKY/WX    TMP DP  RH WIND       PRES   REMARKS
DOTHAN         CLOUDY    80  74  81 CALM      30.04R
OZARK CAIRNS   CLOUDY    81  71  71 NE5       29.99R
FT RUCKER HELI CLOUDY    79  72  79 CALM      29.99R
RUCKER HELI 3  NOT AVBL
RUCKER HELI 2  FAIR      80  74  81 CALM      29.99R
FLORALA APT    PTCLDY    79  74  84 CALM      30.01R
ANDALUSIA      PTCLDY    83  73  72 CALM      29.99R
TROY           PTCLDY    79  70  74 CALM      30.02R
EUFALA         FAIR      80  73  79 CALM      30.00R
MOBILE         PTCLDY    79  73  82 CALM      29.99R
$$

!GAZ120>161-280200
...Southwest and South Central Georgia...

CITY           SKY/WX    TMP DP  RH WIND       PRES   REMARKS
THOMASVILLE    FAIR      81  77  89 CALM      30.01R
BAINBRIDGE     CLOUDY    84  72  65 CALM      30.00R
MOODY AFB      PTCLDY    81  71  69 E6        30.00R
VALDOSTA       CLOUDY    82  74  76 NE9       30.00R
MOULTRIE       PTCLDY    82  72  69 E5        30.02R
BLAKELY        MOCLDY    82  73  74 CALM      30.00R
ALBANY         CLOUDY    86  69  56 CALM      30.02R HX  90
TIFTON         MOCLDY    83  72  68 SE6       30.03R
FITZGERALD     FAIR      87  76  70 E5        30.05R HX  97
CORDELE        FAIR      84  67  58 E3        30.04R
AMERICUS       FAIR      81  59  47 CALM      30.05R
HOMERVILLE     FAIR      81  73  78 E6        30.03R
$$

!GMZ750-755-770-775-280200
...Coastal and Buoy Obs...

STATION/POSITION TIME  TEMP    WIND        PRES    VSBY  WAVE
                       AIR SEA DIR/SP/G                  HT/PER
                 (UTC) (F)     (DEG/KT/KT) (MB)    (MI)  (FT/S)
KEATON BEACH     0100   84     360/  1/  2 1014.2R
CEDAR KEY        0100   83      20/  5/  7 1014.5R
C TOWER          0100   84      50/  5/  5 1015.2R
APALACHICOLA BUO 0050   83 85  160/ 14/ 17 1014.1R         2/ 5
PANAMA CITY BUOY 0050   84 85   90/ 12/ 12 1014.1R         3/ 6
MOBILE BUOY      0100   84 86  100/ 17/ 21 1013.6R
ORANGE BCH AL BU 0050   83 85  110/ 10/ 12 1014.5R         3/ 5
$$




USA.gov is the U.S. government's official web portal to all federal, state and local government web resources and services.